| time (UTC) | temp F | wind direction | speed MPH | gust MPH | rain 1hr in | rain 24hr in | rain mn in | humidity % | barometer mb |
| 20260831102045 | 72 | 12 | 0.0 | 1.0 | 0.00 | 0.00 | 0.00 | 82 | 1012.8 |
| 20260831101540 | 72 | 37 | 0.0 | 1.0 | 0.00 | 0.00 | 0.00 | 82 | 1013.0 |
| 20260831101036 | 72 | 186 | 0.0 | 1.0 | 0.00 | 0.00 | 0.00 | 83 | 1012.9 |
| 20260831100532 | 71 | 199 | 0.0 | 1.0 | 0.00 | 0.00 | 0.00 | 83 | 1012.7 |
| 20260831100028 | 71 | 296 | 0.0 | 2.0 | 0.00 | 0.00 | 0.00 | 85 | 1012.7 |
| 20260831095526 | 71 | 193 | 0.0 | 0.0 | 0.00 | 0.00 | 0.00 | 86 | 1012.8 |
| 20260831095021 | 71 | 190 | 0.0 | 1.0 | 0.00 | 0.00 | 0.00 | 87 | 1012.7 |
| 20260831094517 | 70 | 164 | 0.0 | 1.0 | 0.00 | 0.00 | 0.00 | 88 | 1012.7 |
| 20260831094013 | 70 | 173 | 0.0 | 1.0 | 0.00 | 0.00 | 0.00 | 89 | 1012.7 |
| 20260831093513 | 70 | 157 | 0.0 | 1.0 | 0.00 | 0.00 | 0.00 | 89 | 1012.8 |
| 20260831093010 | 70 | 164 | 0.0 | 0.0 | 0.00 | 0.00 | 0.00 | 90 | 1012.7 |
| 20260831092505 | 70 | 56 | 0.0 | 1.0 | 0.00 | 0.00 | 0.00 | 90 | 1012.8 |
| 20260831092000 | 70 | 36 | 0.0 | 1.0 | 0.00 | 0.00 | 0.00 | 91 | 1012.7 |
| 20260831091455 | 70 | 38 | 0.0 | 2.0 | 0.00 | 0.00 | 0.00 | 91 | 1012.8 |
| 20260831090950 | 70 | 50 | 0.0 | 1.0 | 0.00 | 0.00 | 0.00 | 91 | 1012.8 |
| 20260831090446 | 70 | 75 | 0.0 | 1.0 | 0.00 | 0.00 | 0.00 | 92 | 1012.6 |
| 20260831085942 | 70 | 129 | 0.0 | 1.0 | 0.00 | 0.00 | 0.00 | 92 | 1012.8 |
| 20260831085437 | 70 | 130 | 0.0 | 1.0 | 0.00 | 0.00 | 0.00 | 93 | 1012.9 |
| 20260831084936 | 70 | 124 | 0.0 | 0.0 | 0.00 | 0.00 | 0.00 | 93 | 1012.7 |
| 20260831084433 | 69 | 63 | 0.0 | 0.0 | 0.00 | 0.00 | 0.00 | 94 | 1012.9 |
| 20260831083930 | 69 | 37 | 0.0 | 1.0 | 0.00 | 0.00 | 0.00 | 94 | 1012.9 |
| 20260831083424 | 69 | 89 | 0.0 | 1.0 | 0.00 | 0.00 | 0.00 | 95 | 1013.0 |
| 20260831082923 | 69 | 60 | 0.0 | 1.0 | 0.00 | 0.00 | 0.00 | 96 | 1013.0 |
| 20260831082423 | 69 | 57 | 0.0 | 1.0 | 0.00 | 0.00 | 0.00 | 97 | 1012.8 |
| 20260831081919 | 69 | 32 | 0.0 | 0.0 | 0.00 | 0.00 | 0.00 | 97 | 1013.2 |
| 20260831081415 | 69 | 37 | 0.0 | 1.0 | 0.00 | 0.00 | 0.00 | 97 | 1013.1 |
| 20260831080910 | 69 | 55 | 0.0 | 1.0 | 0.00 | 0.00 | 0.00 | 97 | 1012.9 |
| 20260831080405 | 69 | 29 | 0.0 | 0.0 | 0.00 | 0.00 | 0.00 | 98 | 1013.0 |
| 20260831075901 | 69 | 44 | 0.0 | 0.0 | 0.00 | 0.00 | 0.00 | 98 | 1013.2 |
| 20260831075355 | 70 | 37 | 0.0 | 1.0 | 0.00 | 0.00 | 0.00 | 98 | 1013.0 |
| 20260831074851 | 70 | 32 | 0.0 | 1.0 | 0.00 | 0.00 | 0.00 | 98 | 1012.9 |
| 20260831074350 | 70 | 30 | 0.0 | 2.0 | 0.00 | 0.00 | 0.00 | 98 | 1013.1 |
| 20260831073845 | 70 | 37 | 0.0 | 1.0 | 0.00 | 0.00 | 0.00 | 98 | 1013.2 |
| 20260831073344 | 70 | 22 | 0.0 | 0.0 | 0.00 | 0.00 | 0.00 | 98 | 1013.2 |
| 20260831072840 | 70 | 32 | 0.0 | 1.0 | 0.00 | 0.00 | 0.00 | 98 | 1013.3 |
| 20260831072335 | 70 | 89 | 0.0 | 1.0 | 0.00 | 0.00 | 0.00 | 98 | 1013.1 |
| 20260831071831 | 70 | 26 | 0.0 | 1.0 | 0.00 | 0.00 | 0.00 | 98 | 1013.5 |
| 20260831071330 | 70 | 42 | 1.0 | 2.0 | 0.00 | 0.00 | 0.00 | 98 | 1013.6 |
| 20260831070825 | 70 | 15 | 0.0 | 1.0 | 0.00 | 0.00 | 0.00 | 98 | 1013.4 |
| 20260831070324 | 70 | 30 | 1.0 | 2.0 | 0.00 | 0.00 | 0.00 | 98 | 1013.2 |
| 20260831065824 | 71 | 61 | 1.0 | 2.0 | 0.00 | 0.00 | 0.00 | 98 | 1013.5 |
| 20260831065321 | 71 | 40 | 1.0 | 2.0 | 0.00 | 0.00 | 0.00 | 98 | 1013.6 |
| 20260831064817 | 70 | 50 | 1.0 | 2.0 | 0.00 | 0.00 | 0.00 | 98 | 1013.6 |
| 20260831064312 | 70 | 18 | 0.0 | 2.0 | 0.00 | 0.00 | 0.00 | 98 | 1013.4 |
| 20260831063808 | 71 | 52 | 0.0 | 2.0 | 0.00 | 0.00 | 0.00 | 98 | 1013.2 |
| 20260831063303 | 71 | 32 | 0.0 | 2.0 | 0.00 | 0.00 | 0.00 | 98 | 1013.3 |
| 20260831062803 | 71 | 11 | 0.0 | 1.0 | 0.00 | 0.00 | 0.00 | 98 | 1013.5 |
| 20260831062258 | 71 | 77 | 0.0 | 1.0 | 0.00 | 0.00 | 0.00 | 98 | 1013.3 |
| 20260831061757 | 71 | 55 | 1.0 | 1.0 | 0.00 | 0.00 | 0.00 | 98 | 1013.2 |
| 20260831061256 | 71 | 44 | 0.0 | 0.0 | 0.00 | 0.00 | 0.00 | 98 | 1013.3 |
| 20260831060753 | 71 | 32 | 0.0 | 0.0 | 0.00 | 0.00 | 0.00 | 98 | 1013.3 |
| 20260831060253 | 71 | 76 | 0.0 | 0.0 | 0.00 | 0.00 | 0.00 | 98 | 1013.1 |
| 20260831055752 | 71 | 52 | 1.0 | 2.0 | 0.00 | 0.00 | 0.00 | 98 | 1013.3 |
| 20260831055247 | 71 | 66 | 0.0 | 1.0 | 0.02 | 0.00 | 0.00 | 98 | 1013.3 |
| 20260831054742 | 71 | 56 | 0.0 | 1.0 | 0.00 | 0.00 | 0.00 | 98 | 1013.4 |
| 20260831054237 | 71 | 44 | 0.0 | 1.0 | 0.00 | 0.00 | 0.00 | 98 | 1013.2 |
| 20260831053736 | 71 | 0 | 0.0 | 0.0 | 0.00 | 0.00 | 0.00 | 98 | 1013.4 |
| 20260831053235 | 71 | 55 | 0.0 | 2.0 | 0.00 | 0.00 | 0.00 | 98 | 1013.3 |
| 20260831052730 | 71 | 50 | 0.0 | 1.0 | 0.00 | 0.00 | 0.00 | 98 | 1013.3 |
| 20260831052229 | 71 | 62 | 2.0 | 2.0 | 0.00 | 0.00 | 0.00 | 98 | 1013.4 |
| 20260831051727 | 71 | 58 | 1.0 | 1.0 | 0.00 | 0.00 | 0.00 | 98 | 1013.4 |
| 20260831051226 | 71 | 64 | 1.0 | 1.0 | 0.00 | 0.00 | 0.00 | 98 | 1013.4 |
| 20260831050721 | 71 | 44 | 0.0 | 1.0 | 0.00 | 0.00 | 0.00 | 98 | 1013.4 |
| 20260831050219 | 72 | 6 | 0.0 | 1.0 | 0.00 | 0.00 | 0.00 | 98 | 1013.4 |
| 20260831045714 | 72 | 325 | 1.0 | 1.0 | 0.00 | 0.27 | 0.27 | 98 | 1013.5 |
| 20260831045209 | 72 | 44 | 2.0 | 2.0 | 0.00 | 0.27 | 0.27 | 98 | 1013.1 |
| 20260831044709 | 72 | 42 | 1.0 | 2.0 | 0.00 | 0.27 | 0.27 | 98 | 1013.3 |
| 20260831044205 | 72 | 27 | 2.0 | 2.0 | 0.00 | 0.27 | 0.27 | 98 | 1013.5 |
| 20260831043700 | 72 | 66 | 0.0 | 1.0 | 0.00 | 0.27 | 0.27 | 98 | 1013.4 |
| 20260831043155 | 72 | 50 | 0.0 | 0.0 | 0.00 | 0.27 | 0.27 | 98 | 1013.4 |
| 20260831042654 | 72 | 117 | 0.0 | 1.0 | 0.00 | 0.27 | 0.27 | 98 | 1013.3 |
| 20260831042149 | 72 | 62 | 0.0 | 1.0 | 0.00 | 0.27 | 0.27 | 98 | 1013.7 |
| 20260831041644 | 72 | 32 | 0.0 | 0.0 | 0.00 | 0.27 | 0.27 | 98 | 1013.7 |
| 20260831041144 | 72 | 28 | 2.0 | 2.0 | 0.00 | 0.27 | 0.27 | 98 | 1013.7 |
| 20260831040640 | 72 | 3 | 2.0 | 2.0 | 0.00 | 0.27 | 0.27 | 98 | 1013.5 |
| 20260831040138 | 72 | 50 | 0.0 | 2.0 | 0.00 | 0.27 | 0.27 | 98 | 1013.4 |
| 20260831035637 | 72 | 43 | 0.0 | 1.0 | 0.00 | 0.27 | 0.27 | 98 | 1013.0 |
| 20260831035132 | 72 | 45 | 0.0 | 1.0 | 0.00 | 0.27 | 0.27 | 98 | 1012.7 |
| 20260831034630 | 72 | 62 | 0.0 | 2.0 | 0.00 | 0.27 | 0.27 | 98 | 1013.1 |
| 20260831034126 | 72 | 117 | 0.0 | 1.0 | 0.00 | 0.27 | 0.27 | 98 | 1012.9 |
| 20260831033622 | 72 | 62 | 0.0 | 1.0 | 0.00 | 0.27 | 0.27 | 98 | 1013.2 |
| 20260831033117 | 72 | 189 | 0.0 | 0.0 | 0.00 | 0.27 | 0.27 | 98 | 1013.3 |
| 20260831032616 | 72 | 137 | 0.0 | 2.0 | 0.00 | 0.27 | 0.27 | 98 | 1013.6 |
| 20260831032112 | 72 | 217 | 0.0 | 0.0 | 0.02 | 0.27 | 0.27 | 98 | 1013.8 |
| 20260831031612 | 72 | 145 | 0.0 | 0.0 | 0.02 | 0.26 | 0.26 | 98 | 1013.9 |
| 20260831031111 | 72 | 50 | 0.0 | 0.0 | 0.07 | 0.26 | 0.26 | 98 | 1014.2 |
| 20260831030611 | 72 | 113 | 0.0 | 1.0 | 0.07 | 0.26 | 0.26 | 98 | 1014.0 |
| 20260831030110 | 72 | 129 | 0.0 | 0.0 | 0.02 | 0.25 | 0.25 | 98 | 1014.0 |
| 20260831025608 | 72 | 180 | 0.0 | 0.0 | 0.00 | 0.24 | 0.24 | 98 | 1014.4 |
| 20260831025103 | 72 | 180 | 0.0 | 0.0 | 0.00 | 0.24 | 0.24 | 98 | 1014.7 |
| 20260831024600 | 72 | 200 | 0.0 | 0.0 | 0.00 | 0.24 | 0.24 | 98 | 1014.8 |
| 20260831024058 | 72 | 117 | 0.0 | 0.0 | 0.00 | 0.24 | 0.24 | 98 | 1014.7 |
| 20260831023556 | 72 | 62 | 0.0 | 0.0 | 0.00 | 0.24 | 0.24 | 98 | 1014.8 |
| 20260831023051 | 72 | 135 | 0.0 | 0.0 | 0.00 | 0.24 | 0.24 | 98 | 1014.6 |
| 20260831022551 | 71 | 44 | 0.0 | 0.0 | 0.00 | 0.24 | 0.24 | 98 | 1014.7 |
| 20260831022046 | 71 | 56 | 0.0 | 1.0 | 0.00 | 0.24 | 0.24 | 98 | 1014.7 |
| 20260831021544 | 72 | 62 | 0.0 | 0.0 | 0.02 | 0.24 | 0.24 | 98 | 1014.6 |
| 20260831021041 | 72 | 62 | 0.0 | 0.0 | 0.02 | 0.24 | 0.24 | 98 | 1014.5 |
| 20260831020536 | 72 | 195 | 0.0 | 0.0 | 0.00 | 0.24 | 0.24 | 98 | 1014.5 |
| 20260831020031 | 72 | 195 | 0.0 | 0.0 | 0.00 | 0.24 | 0.24 | 98 | 1014.4 |
| 20260831015526 | 71 | 186 | 0.0 | 0.0 | 0.00 | 0.24 | 0.24 | 98 | 1014.4 |
| 20260831015021 | 72 | 49 | 0.0 | 0.0 | 0.00 | 0.24 | 0.24 | 98 | 1014.4 |
| 20260831014516 | 72 | 49 | 0.0 | 0.0 | 0.00 | 0.24 | 0.24 | 98 | 1014.9 |
| 20260831014012 | 71 | 142 | 0.0 | 0.0 | 0.00 | 0.24 | 0.24 | 98 | 1014.5 |
| 20260831013508 | 71 | 142 | 0.0 | 0.0 | 0.00 | 0.24 | 0.24 | 97 | 1014.7 |
| 20260831013008 | 71 | 50 | 0.0 | 0.0 | 0.00 | 0.24 | 0.24 | 97 | 1014.7 |
| 20260831012502 | 71 | 72 | 0.0 | 1.0 | 0.00 | 0.24 | 0.24 | 97 | 1014.5 |
| 20260831012002 | 71 | 47 | 0.0 | 0.0 | 0.00 | 0.24 | 0.24 | 97 | 1014.5 |
| 20260831011457 | 71 | 37 | 0.0 | 0.0 | 0.00 | 0.24 | 0.24 | 97 | 1014.4 |
| 20260831010953 | 71 | 157 | 0.0 | 0.0 | 0.00 | 0.24 | 0.24 | 97 | 1014.3 |
| 20260831010453 | 71 | 62 | 0.0 | 1.0 | 0.00 | 0.24 | 0.24 | 97 | 1014.3 |
| 20260831005948 | 71 | 27 | 1.0 | 1.0 | 0.00 | 0.24 | 0.24 | 97 | 1014.1 |
| 20260831005444 | 71 | 46 | 1.0 | 1.0 | 0.00 | 0.24 | 0.24 | 97 | 1014.4 |
| 20260831004943 | 71 | 50 | 0.0 | 1.0 | 0.00 | 0.24 | 0.24 | 97 | 1014.3 |
| 20260831004440 | 72 | 44 | 0.0 | 0.0 | 0.02 | 0.24 | 0.24 | 97 | 1014.2 |
| 20260831003935 | 72 | 66 | 0.0 | 0.0 | 0.00 | 0.24 | 0.24 | 97 | 1014.2 |
| 20260831003431 | 72 | 29 | 0.0 | 0.0 | 0.00 | 0.24 | 0.24 | 96 | 1014.1 |
| 20260831002931 | 72 | 37 | 0.0 | 1.0 | 0.00 | 0.24 | 0.24 | 96 | 1013.9 |
| 20260831002430 | 72 | 62 | 0.0 | 0.0 | 0.00 | 0.24 | 0.24 | 96 | 1014.4 |
| 20260831001926 | 72 | 62 | 0.0 | 1.0 | 0.00 | 0.24 | 0.24 | 96 | 1014.1 |
| 20260831001421 | 72 | 117 | 0.0 | 1.0 | 0.00 | 0.24 | 0.24 | 96 | 1014.1 |
| 20260831000918 | 72 | 202 | 0.0 | 1.0 | 0.00 | 0.24 | 0.24 | 96 | 1013.8 |
| 20260831000413 | 72 | 183 | 0.0 | 1.0 | 0.00 | 0.24 | 0.24 | 96 | 1013.7 |
| 20260830235911 | 72 | 186 | 0.0 | 1.0 | 0.00 | 0.24 | 0.24 | 96 | 1013.9 |
| 20260830235406 | 72 | 142 | 0.0 | 1.0 | 0.02 | 0.24 | 0.24 | 96 | 1014.0 |
| 20260830234902 | 72 | 322 | 0.0 | 0.0 | 0.05 | 0.24 | 0.24 | 96 | 1013.9 |
| 20260830234357 | 72 | 50 | 0.0 | 1.0 | 0.09 | 0.23 | 0.23 | 95 | 1014.0 |
| 20260830233853 | 72 | 126 | 0.0 | 1.0 | 0.07 | 0.22 | 0.22 | 95 | 1013.8 |
| 20260830233348 | 72 | 89 | 0.0 | 1.0 | 0.05 | 0.22 | 0.22 | 95 | 1013.9 |
| 20260830232844 | 72 | 124 | 0.0 | 2.0 | 0.05 | 0.21 | 0.21 | 94 | 1014.1 |
| 20260830232339 | 72 | 117 | 0.0 | 2.0 | 0.02 | 0.20 | 0.20 | 94 | 1014.0 |
| 20260830231836 | 72 | 161 | 1.0 | 2.0 | 0.02 | 0.20 | 0.20 | 94 | 1014.0 |
| 20260830231336 | 73 | 166 | 2.0 | 2.0 | 0.05 | 0.20 | 0.20 | 93 | 1014.0 |
| 20260830230836 | 73 | 84 | 0.0 | 2.0 | 0.05 | 0.20 | 0.20 | 93 | 1014.0 |
| 20260830230331 | 73 | 139 | 2.0 | 2.0 | 0.02 | 0.19 | 0.19 | 93 | 1014.6 |
| 20260830225831 | 73 | 50 | 0.0 | 1.0 | 0.00 | 0.19 | 0.19 | 92 | 1014.8 |
| 20260830225326 | 73 | 110 | 0.0 | 1.0 | 0.02 | 0.19 | 0.19 | 92 | 1014.6 |
| 20260830224826 | 73 | 103 | 0.0 | 1.0 | 0.02 | 0.18 | 0.18 | 91 | 1014.6 |
| 20260830224321 | 73 | 164 | 0.0 | 1.0 | 0.05 | 0.18 | 0.18 | 90 | 1014.7 |
| 20260830223817 | 73 | 34 | 0.0 | 1.0 | 0.02 | 0.18 | 0.18 | 89 | 1014.7 |
| 20260830223314 | 74 | 153 | 0.0 | 1.0 | 0.00 | 0.18 | 0.18 | 89 | 1014.7 |
| 20260830222813 | 74 | 174 | 0.0 | 1.0 | 0.02 | 0.18 | 0.18 | 88 | 1014.6 |
| 20260830222309 | 74 | 50 | 0.0 | 0.0 | 0.02 | 0.18 | 0.18 | 87 | 1014.7 |
| 20260830221804 | 74 | 154 | 0.0 | 1.0 | 0.00 | 0.17 | 0.17 | 86 | 1014.5 |
| 20260830221301 | 75 | 62 | 0.0 | 0.0 | 0.00 | 0.17 | 0.17 | 85 | 1014.7 |
| 20260830220801 | 75 | 50 | 0.0 | 0.0 | 0.00 | 0.17 | 0.17 | 84 | 1014.4 |
| 20260830220300 | 75 | 44 | 0.0 | 1.0 | 0.00 | 0.17 | 0.17 | 83 | 1014.4 |
| 20260830215758 | 75 | 124 | 0.0 | 1.0 | 0.00 | 0.17 | 0.17 | 82 | 1014.6 |
| 20260830215253 | 76 | 156 | 0.0 | 1.0 | 0.00 | 0.17 | 0.17 | 82 | 1014.7 |
| 20260830214748 | 76 | 129 | 0.0 | 0.0 | 0.00 | 0.17 | 0.17 | 81 | 1014.7 |
| 20260830214248 | 76 | 127 | 0.0 | 0.0 | 0.00 | 0.17 | 0.17 | 81 | 1014.6 |
| 20260830213747 | 76 | 154 | 0.0 | 0.0 | 0.00 | 0.17 | 0.17 | 81 | 1014.7 |
| 20260830213243 | 76 | 129 | 0.0 | 0.0 | 0.00 | 0.17 | 0.17 | 80 | 1014.6 |
| 20260830212739 | 76 | 62 | 0.0 | 1.0 | 0.00 | 0.17 | 0.17 | 80 | 1014.6 |
| 20260830212235 | 76 | 164 | 1.0 | 1.0 | 0.00 | 0.17 | 0.17 | 79 | 1014.7 |
| 20260830211734 | 76 | 209 | 0.0 | 1.0 | 0.00 | 0.17 | 0.17 | 79 | 1014.6 |
| 20260830211233 | 77 | 205 | 0.0 | 2.0 | 0.00 | 0.17 | 0.17 | 78 | 1014.8 |
| 20260830210729 | 77 | 129 | 0.0 | 1.0 | 0.00 | 0.17 | 0.17 | 77 | 1014.8 |
| 20260830210228 | 77 | 322 | 0.0 | 1.0 | 0.00 | 0.17 | 0.17 | 77 | 1014.7 |
| 20260830205725 | 77 | 135 | 0.0 | 0.0 | 0.00 | 0.17 | 0.17 | 75 | 1014.8 |
| 20260830205221 | 78 | 352 | 0.0 | 0.0 | 0.00 | 0.17 | 0.17 | 74 | 1014.8 |
| 20260830204716 | 78 | 142 | 0.0 | 3.0 | 0.00 | 0.17 | 0.17 | 74 | 1014.6 |
| 20260830204214 | 78 | 202 | 0.0 | 1.0 | 0.00 | 0.17 | 0.17 | 75 | 1014.8 |
| 20260830203711 | 78 | 204 | 2.0 | 2.0 | 0.00 | 0.17 | 0.17 | 75 | 1014.9 |
| 20260830203206 | 79 | 343 | 0.0 | 0.0 | 0.00 | 0.17 | 0.17 | 75 | 1014.8 |
| 20260830202706 | 79 | 180 | 0.0 | 2.0 | 0.00 | 0.17 | 0.17 | 74 | 1014.7 |
| 20260830202201 | 79 | 297 | 0.0 | 1.0 | 0.00 | 0.17 | 0.17 | 73 | 1014.9 |
| 20260830201700 | 80 | 242 | 0.0 | 2.0 | 0.00 | 0.17 | 0.17 | 73 | 1014.8 |
| 20260830201156 | 80 | 129 | 0.0 | 1.0 | 0.00 | 0.17 | 0.17 | 72 | 1014.6 |
| 20260830200651 | 80 | 255 | 0.0 | 4.0 | 0.00 | 0.17 | 0.17 | 74 | 1014.7 |
| 20260830200150 | 79 | 260 | 0.0 | 2.0 | 0.00 | 0.17 | 0.17 | 73 | 1014.9 |
| 20260830195646 | 79 | 22 | 0.0 | 2.0 | 0.00 | 0.17 | 0.17 | 74 | 1014.6 |
| 20260830195144 | 78 | 263 | 0.0 | 1.0 | 0.00 | 0.17 | 0.17 | 72 | 1014.6 |
| 20260830194643 | 78 | 212 | 0.0 | 0.0 | 0.00 | 0.17 | 0.17 | 73 | 1014.7 |
| 20260830194138 | 78 | 283 | 0.0 | 1.0 | 0.00 | 0.17 | 0.17 | 74 | 1014.6 |
| 20260830193633 | 78 | 150 | 0.0 | 2.0 | 0.00 | 0.17 | 0.17 | 73 | 1014.4 |
| 20260830193132 | 78 | 230 | 0.0 | 1.0 | 0.00 | 0.17 | 0.17 | 73 | 1014.4 |
| 20260830192629 | 78 | 309 | 0.0 | 0.0 | 0.00 | 0.17 | 0.17 | 72 | 1014.4 |
| 20260830192128 | 78 | 29 | 0.0 | 1.0 | 0.00 | 0.17 | 0.17 | 73 | 1014.5 |
| 20260830191624 | 78 | 123 | 0.0 | 2.0 | 0.00 | 0.17 | 0.17 | 73 | 1014.4 |
| 20260830191119 | 79 | 199 | 0.0 | 1.0 | 0.00 | 0.17 | 0.17 | 70 | 1014.4 |
| 20260830190615 | 79 | 131 | 0.0 | 3.0 | 0.00 | 0.17 | 0.17 | 70 | 1014.3 |
| 20260830190110 | 79 | 193 | 0.0 | 3.0 | 0.00 | 0.17 | 0.17 | 70 | 1014.6 |
| 20260830185608 | 79 | 224 | 0.0 | 1.0 | 0.00 | 0.17 | 0.17 | 70 | 1014.3 |
| 20260830185105 | 79 | 195 | 0.0 | 1.0 | 0.00 | 0.17 | 0.17 | 70 | 1014.7 |
| 20260830184604 | 79 | 193 | 0.0 | 2.0 | 0.00 | 0.17 | 0.17 | 69 | 1014.7 |
| 20260830184104 | 79 | 293 | 1.0 | 3.0 | 0.00 | 0.17 | 0.17 | 70 | 1014.9 |
| 20260830183558 | 80 | 113 | 3.0 | 4.0 | 0.00 | 0.17 | 0.17 | 68 | 1015.0 |
| 20260830183054 | 80 | 276 | 0.0 | 3.0 | 0.00 | 0.17 | 0.17 | 66 | 1015.1 |
| 20260830182549 | 80 | 347 | 0.0 | 4.0 | 0.00 | 0.17 | 0.17 | 67 | 1015.1 |
| 20260830182045 | 81 | 359 | 1.0 | 2.0 | 0.00 | 0.17 | 0.17 | 66 | 1014.3 |
| 20260830181542 | 81 | 339 | 0.0 | 2.0 | 0.00 | 0.17 | 0.17 | 65 | 1014.0 |
| 20260830181041 | 82 | 210 | 2.0 | 2.0 | 0.00 | 0.17 | 0.17 | 63 | 1013.7 |
| 20260830180540 | 84 | 278 | 0.0 | 2.0 | 0.00 | 0.17 | 0.17 | 65 | 1013.5 |
| 20260830180040 | 85 | 49 | 0.0 | 2.0 | 0.00 | 0.17 | 0.17 | 61 | 1013.0 |
| 20260830175539 | 85 | 205 | 1.0 | 2.0 | 0.00 | 0.17 | 0.17 | 61 | 1013.2 |
| 20260830175034 | 84 | 191 | 2.0 | 3.0 | 0.00 | 0.17 | 0.17 | 64 | 1013.1 |
| 20260830174530 | 83 | 277 | 2.0 | 3.0 | 0.00 | 0.17 | 0.17 | 65 | 1013.2 |
| 20260830174025 | 83 | 216 | 0.0 | 3.0 | 0.00 | 0.17 | 0.17 | 62 | 1013.4 |
| 20260830173520 | 83 | 264 | 2.0 | 3.0 | 0.00 | 0.17 | 0.17 | 62 | 1013.5 |
| 20260830173015 | 84 | 224 | 0.0 | 4.0 | 0.00 | 0.17 | 0.17 | 59 | 1013.6 |
| 20260830172512 | 84 | 229 | 0.0 | 2.0 | 0.00 | 0.17 | 0.17 | 63 | 1013.6 |
| 20260830172008 | 83 | 306 | 1.0 | 2.0 | 0.00 | 0.17 | 0.17 | 66 | 1013.6 |
| 20260830171503 | 83 | 273 | 0.0 | 3.0 | 0.00 | 0.17 | 0.17 | 62 | 1013.4 |
| 20260830171003 | 83 | 163 | 2.0 | 4.0 | 0.00 | 0.17 | 0.17 | 61 | 1013.5 |
| 20260830170457 | 82 | 242 | 3.0 | 4.0 | 0.00 | 0.17 | 0.17 | 66 | 1013.6 |
| 20260830165955 | 82 | 236 | 3.0 | 3.0 | 0.00 | 0.17 | 0.17 | 66 | 1014.0 |
| 20260830165452 | 81 | 236 | 2.0 | 3.0 | 0.00 | 0.17 | 0.17 | 66 | 1013.7 |
| 20260830164948 | 81 | 268 | 0.0 | 4.0 | 0.00 | 0.17 | 0.17 | 64 | 1013.8 |
| 20260830164443 | 81 | 232 | 2.0 | 2.0 | 0.00 | 0.17 | 0.17 | 68 | 1013.9 |
| 20260830163940 | 81 | 294 | 0.0 | 3.0 | 0.00 | 0.17 | 0.17 | 66 | 1013.8 |
| 20260830163436 | 81 | 258 | 0.0 | 2.0 | 0.00 | 0.17 | 0.17 | 68 | 1013.7 |
| 20260830162935 | 81 | 233 | 2.0 | 6.0 | 0.00 | 0.17 | 0.17 | 69 | 1014.0 |
| 20260830162431 | 81 | 236 | 1.0 | 1.0 | 0.00 | 0.17 | 0.17 | 71 | 1013.7 |
| 20260830161931 | 80 | 75 | 0.0 | 2.0 | 0.00 | 0.17 | 0.17 | 72 | 1013.7 |
| 20260830161432 | 80 | 50 | 0.0 | 2.0 | 0.00 | 0.17 | 0.17 | 70 | 1013.8 |
| 20260830160932 | 80 | 230 | 0.0 | 2.0 | 0.00 | 0.17 | 0.17 | 71 | 1013.6 |
| 20260830160428 | 80 | 220 | 0.0 | 1.0 | 0.00 | 0.17 | 0.17 | 71 | 1013.7 |
| 20260830155923 | 79 | 193 | 0.0 | 2.0 | 0.00 | 0.17 | 0.17 | 71 | 1013.6 |
| 20260830155420 | 78 | 198 | 2.0 | 2.0 | 0.00 | 0.17 | 0.17 | 76 | 1013.7 |
| 20260830154920 | 78 | 279 | 0.0 | 2.0 | 0.00 | 0.17 | 0.17 | 77 | 1013.4 |
| 20260830154416 | 78 | 37 | 0.0 | 2.0 | 0.00 | 0.17 | 0.17 | 77 | 1013.8 |
| 20260830153913 | 77 | 57 | 0.0 | 1.0 | 0.00 | 0.17 | 0.17 | 78 | 1013.6 |
| 20260830153408 | 77 | 140 | 0.0 | 3.0 | 0.00 | 0.17 | 0.17 | 75 | 1013.4 |
| 20260830152907 | 76 | 195 | 2.0 | 2.0 | 0.00 | 0.17 | 0.17 | 79 | 1013.6 |
| 20260830152401 | 76 | 135 | 1.0 | 1.0 | 0.00 | 0.17 | 0.17 | 81 | 1013.9 |
| 20260830151855 | 75 | 168 | 2.0 | 2.0 | 0.00 | 0.17 | 0.17 | 83 | 1013.6 |
| 20260830151355 | 75 | 176 | 0.0 | 2.0 | 0.00 | 0.17 | 0.17 | 84 | 1013.6 |
| 20260830150851 | 74 | 156 | 1.0 | 2.0 | 0.00 | 0.17 | 0.17 | 86 | 1013.8 |
| 20260830150350 | 74 | 71 | 0.0 | 2.0 | 0.00 | 0.17 | 0.17 | 87 | 1013.9 |
| 20260830145844 | 73 | 155 | 2.0 | 3.0 | 0.00 | 0.17 | 0.17 | 88 | 1013.5 |
| 20260830145339 | 73 | 218 | 0.0 | 2.0 | 0.00 | 0.17 | 0.17 | 89 | 1013.5 |
| 20260830144834 | 72 | 177 | 1.0 | 2.0 | 0.00 | 0.17 | 0.17 | 89 | 1013.5 |
| 20260830144330 | 72 | 146 | 2.0 | 2.0 | 0.00 | 0.17 | 0.17 | 90 | 1013.8 |
| 20260830143826 | 72 | 150 | 0.0 | 2.0 | 0.00 | 0.17 | 0.17 | 92 | 1013.9 |
| 20260830143326 | 71 | 177 | 0.0 | 2.0 | 0.00 | 0.17 | 0.17 | 93 | 1013.8 |
| 20260830142825 | 71 | 186 | 0.0 | 2.0 | 0.00 | 0.17 | 0.17 | 93 | 1013.9 |
| 20260830142320 | 70 | 195 | 0.0 | 2.0 | 0.00 | 0.17 | 0.17 | 95 | 1013.8 |
| 20260830141817 | 70 | 136 | 1.0 | 2.0 | 0.00 | 0.17 | 0.17 | 96 | 1013.9 |
| 20260830141316 | 70 | 140 | 2.0 | 2.0 | 0.00 | 0.17 | 0.17 | 96 | 1014.0 |
| 20260830140812 | 69 | 254 | 0.0 | 2.0 | 0.00 | 0.17 | 0.17 | 97 | 1014.0 |
| 20260830140312 | 69 | 124 | 2.0 | 2.0 | 0.00 | 0.17 | 0.17 | 97 | 1014.0 |
| 20260830135807 | 68 | 193 | 2.0 | 2.0 | 0.00 | 0.17 | 0.17 | 97 | 1014.0 |
| 20260830135306 | 68 | 147 | 2.0 | 2.0 | 0.00 | 0.17 | 0.17 | 97 | 1013.9 |
| 20260830134758 | 68 | 167 | 2.0 | 2.0 | 0.00 | 0.17 | 0.17 | 97 | 1014.3 |
| 20260830134257 | 68 | 152 | 2.0 | 2.0 | 0.00 | 0.17 | 0.17 | 97 | 1014.0 |
| 20260830133754 | 67 | 168 | 1.0 | 2.0 | 0.00 | 0.17 | 0.17 | 97 | 1014.0 |
| 20260830133249 | 67 | 113 | 1.0 | 3.0 | 0.00 | 0.17 | 0.17 | 97 | 1014.2 |
| 20260830132744 | 67 | 157 | 0.0 | 2.0 | 0.00 | 0.17 | 0.17 | 97 | 1013.9 |
| 20260830132240 | 67 | 205 | 0.0 | 3.0 | 0.02 | 0.17 | 0.17 | 97 | 1014.2 |
| 20260830131739 | 67 | 126 | 2.0 | 2.0 | 0.02 | 0.17 | 0.17 | 96 | 1014.4 |
| 20260830131234 | 67 | 62 | 0.0 | 2.0 | 0.07 | 0.17 | 0.17 | 96 | 1014.3 |
| 20260830130729 | 67 | 109 | 0.0 | 2.0 | 0.19 | 0.17 | 0.17 | 96 | 1014.3 |
| 20260830130224 | 67 | 184 | 2.0 | 2.0 | 0.24 | 0.15 | 0.15 | 96 | 1014.4 |
| 20260830125723 | 67 | 125 | 2.0 | 2.0 | 0.24 | 0.13 | 0.13 | 96 | 1014.7 |
| 20260830125219 | 67 | 147 | 0.0 | 2.0 | 0.14 | 0.11 | 0.11 | 96 | 1014.6 |
| 20260830124716 | 67 | 174 | 1.0 | 2.0 | 0.02 | 0.09 | 0.09 | 95 | 1014.6 |
| 20260830124212 | 67 | 93 | 1.0 | 1.0 | 0.07 | 0.09 | 0.09 | 95 | 1014.7 |
| 20260830123709 | 67 | 137 | 0.0 | 2.0 | 0.14 | 0.08 | 0.08 | 94 | 1015.2 |
| 20260830123205 | 67 | 136 | 2.0 | 2.0 | 0.12 | 0.07 | 0.07 | 94 | 1015.2 |
| 20260830122702 | 67 | 254 | 0.0 | 2.0 | 0.07 | 0.06 | 0.06 | 93 | 1015.4 |
| 20260830122157 | 67 | 97 | 1.0 | 2.0 | 0.07 | 0.05 | 0.05 | 93 | 1015.2 |
| 20260830121652 | 68 | 76 | 0.0 | 1.0 | 0.09 | 0.04 | 0.04 | 92 | 1015.1 |
| 20260830121152 | 68 | 138 | 2.0 | 2.0 | 0.09 | 0.04 | 0.04 | 91 | 1015.2 |
| 20260830120646 | 68 | 126 | 1.0 | 2.0 | 0.07 | 0.03 | 0.03 | 90 | 1015.1 |
| 20260830120143 | 68 | 141 | 0.0 | 2.0 | 0.05 | 0.02 | 0.02 | 89 | 1015.2 |
| 20260830115639 | 69 | 109 | 0.0 | 2.0 | 0.05 | 0.02 | 0.02 | 87 | 1015.2 |
| 20260830115134 | 69 | 126 | 2.0 | 2.0 | 0.02 | 0.01 | 0.01 | 86 | 1015.1 |
| 20260830114631 | 70 | 147 | 1.0 | 2.0 | 0.02 | 0.01 | 0.01 | 83 | 1015.1 |
| 20260830114131 | 70 | 345 | 0.0 | 2.0 | 0.00 | 0.00 | 0.00 | 81 | 1015.0 |
| 20260830113626 | 70 | 122 | 0.0 | 2.0 | 0.00 | 0.00 | 0.00 | 81 | 1014.6 |
| 20260830113121 | 70 | 79 | 0.0 | 2.0 | 0.00 | 0.00 | 0.00 | 81 | 1014.9 |
| 20260830112617 | 70 | 82 | 0.0 | 1.0 | 0.00 | 0.00 | 0.00 | 81 | 1014.7 |
| 20260830112113 | 70 | 120 | 0.0 | 1.0 | 0.00 | 0.00 | 0.00 | 81 | 1014.5 |
| 20260830111609 | 70 | 89 | 0.0 | 1.0 | 0.00 | 0.00 | 0.00 | 81 | 1014.3 |
| 20260830111104 | 69 | 135 | 0.0 | 1.0 | 0.00 | 0.00 | 0.00 | 82 | 1014.4 |
| 20260830110604 | 70 | 81 | 1.0 | 2.0 | 0.00 | 0.00 | 0.00 | 82 | 1014.1 |
| 20260830110100 | 69 | 174 | 0.0 | 1.0 | 0.00 | 0.00 | 0.00 | 81 | 1014.1 |
| 20260830105554 | 69 | 78 | 0.0 | 2.0 | 0.00 | 0.00 | 0.00 | 83 | 1013.9 |
| 20260830105050 | 69 | 44 | 0.0 | 2.0 | 0.00 | 0.00 | 0.00 | 83 | 1014.1 |
| 20260830104547 | 69 | 135 | 0.0 | 2.0 | 0.02 | 0.00 | 0.00 | 82 | 1014.2 |
| 20260830104043 | 70 | 135 | 2.0 | 2.0 | 0.02 | 0.00 | 0.00 | 81 | 1014.2 |
| 20260830103543 | 71 | 89 | 0.0 | 0.0 | 0.00 | 0.00 | 0.00 | 78 | 1014.4 |
| 20260830103042 | 71 | 103 | 0.0 | 0.0 | 0.00 | 0.00 | 0.00 | 76 | 1014.0 |
| 20260830102537 | 71 | 88 | 0.0 | 0.0 | 0.00 | 0.00 | 0.00 | 77 | 1013.9 |